ICT,Max TemperatureF,Mean TemperatureF,Min TemperatureF,Max Dew PointF,MeanDew PointF,Min DewpointF,Max Humidity, Mean Humidity, Min Humidity, Max Sea Level PressureIn, Mean Sea Level PressureIn, Min Sea Level PressureIn, Max VisibilityMiles, Mean VisibilityMiles, Min VisibilityMiles, Max Wind SpeedMPH, Mean Wind SpeedMPH, Max Gust SpeedMPH,PrecipitationIn, CloudCover, Events, WindDirDegrees
2012-11-1,87,81,75,77,73,70,89,74,58,29.92,29.86,29.77,6,6,5,18,7,,0.00,4,Rain-Thunderstorm,346
2012-11-2,87,82,76,76,74,72,89,74,58,29.92,29.85,29.77,6,6,5,12,5,,0.00,3,,359
2012-11-3,89,84,78,78,75,72,88,72,59,29.89,29.84,29.77,6,6,5,8,4,,0.00,3,Rain-Thunderstorm,265
2012-11-4,89,82,74,77,74,72,92,71,55,29.89,29.83,29.77,6,6,3,9,4,,1.42,2,Rain-Snow,303
2012-11-5,89,82,75,77,74,72,90,75,55,29.92,29.85,29.77,6,6,5,9,4,,0.00,4,Rain,222
2012-11-6,91,84,78,75,73,68,89,71,49,29.95,29.86,29.80,6,6,6,10,4,,0.00,3,Thunderstorm,205
2012-11-7,89,83,77,77,74,72,89,73,55,29.89,29.82,29.74,6,6,3,9,4,,0.00,3,Fog-Rain,239
2012-11-8,91,84,76,77,73,70,89,66,52,29.86,29.80,29.71,6,6,6,9,5,,1.02,3,,288
2012-11-9,93,85,77,78,74,72,93,68,49,29.89,29.82,29.74,6,6,6,12,4,,0.00,2,,207
2012-11-10,93,86,79,78,74,72,91,67,49,29.92,29.84,29.77,6,6,6,8,5,,0.00,3,,199
2012-11-11,91,84,78,78,74,70,89,70,49,29.89,29.83,29.74,6,6,4,32,5,,0.00,3,Rain-Thunderstorm,169
2012-11-12,91,84,76,77,74,72,89,69,52,29.92,29.86,29.80,6,6,6,10,5,,0.00,2,Rain,344
2012-11-13,89,84,78,77,72,68,84,64,52,29.92,29.85,29.77,6,6,3,21,8,,0.00,3,,23
2012-11-14,91,84,78,75,70,66,84,60,43,29.86,29.82,29.77,6,6,6,22,8,,0.00,3,,38
2012-11-15,86,82,77,73,71,66,89,71,58,29.89,29.84,29.80,6,6,5,17,7,,0.00,5,Rain,21
2012-11-16,86,82,77,77,74,72,89,75,66,29.89,29.83,29.77,6,6,6,13,6,,0.00,4,,26
2012-11-17,89,82,75,77,74,72,96,72,55,29.89,29.84,29.77,6,6,3,12,5,,0.00,2,,135
2012-11-18,89,83,77,78,74,72,94,74,58,29.89,29.85,29.77,6,6,3,14,6,,0.00,3,Rain-Thunderstorm,143
2012-11-19,89,83,77,79,74,70,91,70,55,29.92,29.85,29.57,6,6,6,7,4,,0.00,3,,337
2012-11-20,91,84,76,77,74,72,98,70,52,29.95,29.87,29.77,6,6,5,15,6,,0.24,3,,205
2012-11-21,91,84,78,77,74,72,84,69,55,29.95,29.86,29.80,6,6,6,9,4,,0.00,2,,188
2012-11-22,91,84,78,79,75,70,93,71,55,29.92,29.83,29.74,6,6,4,9,4,,0.00,2,Rain,183
2012-11-23,89,84,78,77,74,72,89,73,55,29.89,29.83,29.74,6,6,5,12,6,,0.00,4,Rain-Thunderstorm,187
2012-11-24,89,83,77,77,74,72,95,73,55,29.92,29.86,29.77,6,6,6,8,3,,0.00,2,Rain-Thunderstorm,126
2012-11-25,86,81,76,77,75,72,97,80,62,29.95,29.87,29.80,6,5,4,12,5,,0.00,3,Rain-Thunderstorm,12
2012-11-26,95,85,75,79,73,72,96,67,47,29.92,29.86,29.80,6,6,6,9,5,,0.00,2,,154
2012-11-27,91,82,72,88,76,72,95,70,58,29.89,29.83,29.57,6,6,3,17,5,,0.00,3,Rain-Thunderstorm,34
2012-11-28,87,82,78,78,73,70,94,67,55,29.92,29.86,29.80,6,6,3,12,4,,0.00,3,Fog,148
2012-11-29,91,84,78,75,72,68,84,66,49,29.89,29.84,29.77,6,6,5,8,5,,0.00,3,,174
2012-11-30,89,83,77,75,72,68,84,67,49,29.89,29.82,29.74,6,6,6,7,5,,0.00,2,,140